[[{"header":{"parameterUnit":"m.s-1","parameterCategory":1,"la1":30.2991,"la2":30.254,"lo1":-89.0895,"lo2":-89.0444,"dy":0.0017,"dx":0.0017,"nx":28,"ny":28,"refTime":"2025-03-05T03:00:00:Z","depth":0,"parameterNumber":2,"parameterNumberName":"U-component_of_WINDS"},"data":[0,0,0,0,0,0,0,0,0,0,0,0,0,0,0,0,0,0,0,0,0,0,0,0,0,0,0,0,0,0,0,0,0,0,0,0,0,0,0,0,0,0,0,0,0,0,0,0,0,0,0,0,0,0,0,0,0,0,8.6788,8.679,0,8.6903,8.6904,8.6906,8.6826,8.6822,8.6819,8.6815,8.6935,8.6941,8.6948,0,0,0,0,0,0,0,0,0,0,0,0,0,8.6504,8.6509,8.6788,8.679,8.6791,8.6903,8.6905,8.6906,8.6826,8.6822,8.6818,8.6814,8.6933,8.6941,8.6948,0,0,0,0,0,0,0,0,0,0,0,0,0,8.6624,8.6511,8.6788,8.6765,8.6764,8.6903,8.6905,8.6907,8.6827,8.6822,8.6816,8.6811,8.693,8.694,8.695,8.7118,0,0,8.698,8.6984,0,0,0,0,0,0,0,0,8.6617,8.6634,8.6767,8.6767,8.6766,8.6844,8.6848,8.6978,8.6829,8.6803,8.6815,8.6809,8.6909,8.6921,8.6954,8.7124,8.7129,8.698,8.6986,8.6991,8.6993,0,0,0,0,0,0,0,8.6609,8.6629,8.6834,8.6769,8.6768,8.675,8.6761,8.6872,8.6885,8.6805,8.68,8.6814,8.6908,8.6945,8.6956,8.7131,8.698,8.6989,8.6995,8.6999,8.7449,8.7455,0,0,0,0,0,0,8.6602,8.6623,8.683,8.6837,8.6677,8.6759,8.6772,8.6825,8.6884,8.6888,8.6819,8.681,8.6931,8.6945,8.696,8.7165,8.6991,8.7,8.7005,8.7443,8.745,8.7457,0,0,0,0,0,0,8.6597,8.6622,8.6825,8.6729,8.6753,8.677,8.683,8.683,8.6866,8.6894,8.6896,8.6854,8.6927,8.6946,8.708,8.7168,8.7004,8.7013,8.7436,8.7445,8.7454,8.7573,0,0,0,0,0,0,8.6589,8.662,8.6683,8.673,8.6759,8.6943,8.6835,8.6836,8.6883,8.6873,8.6927,8.6931,8.6924,8.7066,8.709,8.7178,8.7021,8.7428,8.744,8.7451,8.7562,8.7585,8.7605,0,0,0,0,0,8.6579,8.6712,8.6687,8.6712,8.6838,8.6948,8.6964,8.6953,8.6891,8.6955,8.6974,8.6929,8.7154,8.7081,8.7107,8.7199,8.7423,8.7437,8.745,8.7552,8.7581,8.7605,0,0,0,0,0,0,8.6674,8.6717,8.669,8.6842,8.6892,8.6934,8.7015,8.6983,8.7052,8.704,8.7023,8.7036,8.7177,8.7201,8.7119,8.7368,8.7279,8.7298,8.7347,8.7375,8.7396,8.7388,8.7029,0,0,0,0,0,8.6713,8.6797,8.6831,8.6962,8.6988,8.6998,8.7045,8.7032,8.7084,8.7104,8.7132,8.7185,8.7267,8.7322,8.7399,8.7564,8.7577,8.7641,8.7663,8.7681,8.7699,8.7792,8.7821,8.7502,8.7502,8.7501,0,0,8.6793,8.6827,8.6882,8.6982,8.7019,8.7109,8.7016,8.7114,8.7182,8.7119,8.7248,8.7271,8.7329,8.748,8.7548,8.7504,8.779,8.7698,8.7712,8.772,8.7809,8.7839,8.7866,8.7511,8.7509,8.7508,0,0,8.6987,8.702,8.7135,8.7174,8.7232,8.7238,8.7265,8.7313,8.7326,8.7455,8.7412,8.7492,8.7633,8.7677,8.7718,8.7932,8.7896,8.7958,8.8073,8.8164,8.8189,8.8212,8.8291,8.8319,8.7975,8.7975,8.7975,0,8.708,8.7213,8.7198,8.7301,8.7347,8.7295,8.7413,8.7452,8.7532,8.7567,8.7516,8.7695,8.773,8.7893,8.7945,8.7979,8.8012,8.7952,8.8187,8.8209,8.823,8.8305,8.8335,8.7983,8.7982,8.7981,8.798,0,8.7327,8.742,8.7506,8.7586,8.7642,8.7751,8.7754,8.7813,8.7796,8.7808,8.7942,8.7982,8.8068,8.8106,8.8089,8.8268,8.8239,8.8188,8.8099,8.8268,8.8339,8.8367,8.7993,8.7991,8.7988,8.7987,0,0,8.7584,8.7655,8.7687,8.7724,8.7785,8.7857,8.7966,8.805,8.8103,8.816,8.8253,8.8375,8.8329,8.8376,8.8364,8.8444,8.8615,8.8384,8.8385,8.8428,8.8818,8.8858,8.8892,8.8591,8.8596,8.86,8.8814,0,8.7783,8.7972,8.7962,8.814,8.8228,8.8181,8.8276,8.8325,8.8339,8.8417,8.8433,8.8522,8.8453,8.8481,8.8557,8.8578,8.8694,8.8562,8.8679,8.8684,8.8669,8.8928,8.897,8.917,8.8842,8.8846,8.885,0,8.8041,8.8109,8.8295,8.8346,8.8383,8.8468,8.8547,8.862,8.8676,8.8681,8.8735,8.8711,8.8824,8.8731,8.8887,8.8798,8.8845,8.8863,8.887,8.8883,8.8778,8.895,8.9233,8.9264,8.8892,8.8889,8.8886,0,8.8214,8.8351,8.8481,8.8514,8.8576,8.8638,8.8667,8.8716,8.8769,8.8838,8.8872,8.8953,8.8998,8.9062,8.9062,8.8993,8.9222,8.9127,8.9231,8.9232,8.9283,8.928,8.958,8.9309,8.9309,8.9308,8.9308,0,8.8439,8.8556,8.856,8.8641,8.8771,8.876,8.889,8.8912,8.8958,8.9044,8.9007,8.9089,8.9082,8.9166,8.9166,8.9298,8.9317,8.9327,8.9326,8.9332,8.9331,8.9364,8.9351,8.9316,8.9315,8.9313,8.9312,0,8.8655,8.8662,8.8802,8.8849,8.8864,8.8959,8.9,8.9078,8.9089,8.9198,8.9223,8.9243,8.9339,8.9345,8.9455,8.9456,8.9617,8.9599,8.9598,8.9596,8.9701,8.9692,9.0034,9.008,8.9777,8.978,8.9783,0,8.88,8.8889,8.8947,8.9001,8.9034,8.9122,8.9176,8.9168,8.9226,8.9298,8.9368,8.946,8.9534,8.969,8.9715,8.9801,8.9787,8.9901,8.9799,8.9803,8.9792,8.9788,8.9799,8.9921,8.9925,8.9927,8.993,0,8.9057,8.9057,8.9135,8.9216,8.9281,8.9345,8.9404,8.9451,8.9451,8.9518,8.9616,8.9673,8.9787,8.9881,8.9965,8.9996,8.9965,8.9961,8.999,8.9998,8.9995,9.0002,8.9655,8.9954,8.9951,8.995,8.9948,8.9947,8.9244,8.9322,8.9376,8.9466,8.9509,8.9566,8.9642,8.9664,8.9745,8.9837,8.9828,8.9938,8.9994,9.0103,9.0141,9.0228,9.019,9.0231,9.0242,9.0253,9.0266,8.998,9.0243,9.0242,9.0242,9.0241,9.0241,0,8.9503,8.9535,8.9617,8.9702,8.9773,8.9736,8.98,8.9862,8.9959,9.0013,9.0087,9.0202,9.0293,9.0326,9.0415,9.0479,9.0467,9.0503,9.0499,9.0508,9.0294,9.0261,9.0511,9.0511,9.0511,9.0511,9.0511,9.0511,8.9646,8.9777,8.9784,8.9938,8.9969,9.0076,9.0117,9.017,9.0213,9.0343,9.0418,9.0438,9.0485,9.0578,9.0661,9.0669,9.0705,9.0748,9.0749,9.0549,9.0522,9.0496,9.0466,9.0755,9.0755,9.0956,9.0958,9.096]},{"header":{"parameterUnit":"m.s-1","parameterCategory":1,"la1":30.2991,"la2":30.254,"lo1":-89.0895,"lo2":-89.0444,"dy":0.0017,"dx":0.0017,"nx":28,"ny":28,"refTime":"2025-03-05T03:00:00:Z","depth":0,"parameterNumber":3,"parameterNumberName":"V-component_of_WINDS"},"data":[0,0,0,0,0,0,0,0,0,0,0,0,0,0,0,0,0,0,0,0,0,0,0,0,0,0,0,0,0,0,0,0,0,0,0,0,0,0,0,0,0,0,0,0,0,0,0,0,0,0,0,0,0,0,0,0,0,0,-0.597,-0.5969,0,-0.5901,-0.59,-0.5899,-0.5909,-0.591,-0.5911,-0.5912,-0.5838,-0.5835,-0.5832,0,0,0,0,0,0,0,0,0,0,0,0,0,-0.6106,-0.6103,-0.597,-0.5969,-0.5968,-0.5901,-0.59,-0.5899,-0.5908,-0.591,-0.5911,-0.5912,-0.5839,-0.5835,-0.5832,0,0,0,0,0,0,0,0,0,0,0,0,0,-0.6043,-0.6103,-0.597,-0.5964,-0.5963,-0.5901,-0.59,-0.5899,-0.5908,-0.591,-0.5912,-0.5913,-0.584,-0.5836,-0.5831,-0.5769,0,0,-0.5817,-0.5815,0,0,0,0,0,0,0,0,-0.6046,-0.6038,-0.5966,-0.5965,-0.5963,-0.5915,-0.5921,-0.5855,-0.5908,-0.5929,-0.5912,-0.5914,-0.5862,-0.5856,-0.5839,-0.5765,-0.5762,-0.5817,-0.5814,-0.5812,-0.5811,0,0,0,0,0,0,0,-0.6051,-0.6041,-0.5942,-0.5965,-0.5963,-0.5965,-0.5958,-0.5909,-0.5887,-0.5927,-0.5928,-0.592,-0.5862,-0.5843,-0.5837,-0.5761,-0.5817,-0.5813,-0.581,-0.5808,-0.5635,-0.5633,0,0,0,0,0,0,-0.6057,-0.6044,-0.5945,-0.594,-0.601,-0.5961,-0.5953,-0.5929,-0.5887,-0.5883,-0.5918,-0.592,-0.585,-0.5843,-0.5835,-0.576,-0.5812,-0.5808,-0.5805,-0.5636,-0.5634,-0.5632,0,0,0,0,0,0,-0.606,-0.6048,-0.5947,-0.5993,-0.598,-0.5957,-0.593,-0.5927,-0.5909,-0.5881,-0.5876,-0.5904,-0.5851,-0.5841,-0.5786,-0.5758,-0.5806,-0.5802,-0.5639,-0.5636,-0.5633,-0.561,0,0,0,0,0,0,-0.6064,-0.6049,-0.6026,-0.5992,-0.5977,-0.59,-0.5928,-0.5924,-0.5901,-0.5903,-0.5866,-0.5861,-0.5852,-0.5793,-0.5781,-0.5752,-0.5798,-0.5641,-0.5637,-0.5634,-0.5613,-0.5606,-0.5601,0,0,0,0,0,-0.6069,-0.602,-0.6024,-0.6012,-0.5948,-0.5898,-0.589,-0.5881,-0.5899,-0.5875,-0.5857,-0.5863,-0.5763,-0.5787,-0.5774,-0.5743,-0.5643,-0.5638,-0.5634,-0.5616,-0.5608,-0.5601,0,0,0,0,0,0,-0.605,-0.6016,-0.602,-0.596,-0.5932,-0.59,-0.5869,-0.5873,-0.5839,-0.5842,-0.5831,-0.5823,-0.5767,-0.575,-0.5777,-0.5682,-0.5705,-0.5698,-0.5695,-0.5687,-0.5682,-0.5687,-0.5794,0,0,0,0,0,-0.6039,-0.6002,-0.5975,-0.5924,-0.591,-0.5892,-0.587,-0.5866,-0.5837,-0.5825,-0.5803,-0.5773,-0.5735,-0.571,-0.5674,-0.5611,-0.5603,-0.5583,-0.5577,-0.5573,-0.5567,-0.5533,-0.5524,-0.5618,-0.5618,-0.5618,0,0,-0.6015,-0.5992,-0.597,-0.592,-0.5898,-0.586,-0.5882,-0.5841,-0.5813,-0.5818,-0.5765,-0.5748,-0.5714,-0.5655,-0.5628,-0.5639,-0.5539,-0.5567,-0.5564,-0.556,-0.5528,-0.5519,-0.5511,-0.5615,-0.5616,-0.5616,0,0,-0.5953,-0.5932,-0.5889,-0.5867,-0.5834,-0.5823,-0.5812,-0.578,-0.577,-0.5717,-0.5721,-0.5686,-0.5621,-0.5597,-0.5577,-0.5508,-0.5512,-0.5496,-0.5464,-0.5432,-0.5425,-0.5418,-0.5394,-0.5386,-0.549,-0.549,-0.549,0,-0.5928,-0.5872,-0.5865,-0.5824,-0.5802,-0.5807,-0.5763,-0.5742,-0.5698,-0.5683,-0.5696,-0.5615,-0.5593,-0.5529,-0.5512,-0.5495,-0.5483,-0.55,-0.5426,-0.542,-0.5413,-0.5391,-0.5382,-0.5488,-0.5489,-0.5489,-0.5489,0,-0.5843,-0.5804,-0.5773,-0.5733,-0.5707,-0.5664,-0.5651,-0.5626,-0.5624,-0.5611,-0.5558,-0.5531,-0.549,-0.5475,-0.5472,-0.541,-0.5418,-0.5429,-0.5452,-0.5403,-0.5381,-0.5372,-0.5486,-0.5487,-0.5487,-0.5487,0,0,-0.5766,-0.5724,-0.5713,-0.5695,-0.5661,-0.563,-0.5588,-0.5549,-0.5528,-0.5498,-0.5463,-0.5408,-0.5418,-0.5395,-0.539,-0.5361,-0.5309,-0.5375,-0.5374,-0.5365,-0.5241,-0.5234,-0.5224,-0.5312,-0.531,-0.5309,-0.5245,0,-0.5701,-0.5628,-0.5622,-0.5555,-0.552,-0.5525,-0.5488,-0.5463,-0.545,-0.5417,-0.5403,-0.5365,-0.5381,-0.5367,-0.5339,-0.5322,-0.5285,-0.5326,-0.5279,-0.5277,-0.5288,-0.5213,-0.5204,-0.5145,-0.5236,-0.5234,-0.5233,0,-0.5616,-0.5586,-0.5517,-0.5488,-0.5473,-0.544,-0.5405,-0.5374,-0.5345,-0.5338,-0.5313,-0.5312,-0.5268,-0.5293,-0.5233,-0.5262,-0.5242,-0.5231,-0.5228,-0.5224,-0.5252,-0.5206,-0.5125,-0.5117,-0.522,-0.5221,-0.5222,0,-0.5568,-0.551,-0.5461,-0.5446,-0.5411,-0.5388,-0.5373,-0.5346,-0.5323,-0.5292,-0.5278,-0.5241,-0.5221,-0.5193,-0.5182,-0.5202,-0.5123,-0.5147,-0.5116,-0.5116,-0.5099,-0.51,-0.5014,-0.5085,-0.5086,-0.5086,-0.5086,0,-0.5497,-0.5455,-0.544,-0.541,-0.5363,-0.5355,-0.5309,-0.5294,-0.527,-0.5238,-0.5239,-0.5208,-0.5195,-0.5162,-0.5153,-0.5106,-0.5096,-0.5089,-0.5087,-0.5089,-0.509,-0.5076,-0.508,-0.5083,-0.5084,-0.5084,-0.5085,0,-0.5436,-0.5424,-0.5372,-0.5344,-0.5336,-0.5302,-0.5278,-0.5249,-0.5238,-0.5196,-0.5186,-0.5167,-0.5128,-0.5115,-0.5067,-0.5062,-0.5006,-0.5008,-0.5016,-0.5016,-0.4986,-0.4989,-0.4888,-0.4875,-0.4954,-0.4954,-0.4953,0,-0.5391,-0.5359,-0.5328,-0.5307,-0.5291,-0.5257,-0.5235,-0.5226,-0.5203,-0.5169,-0.5144,-0.5106,-0.5075,-0.5013,-0.4995,-0.4959,-0.496,-0.4927,-0.4954,-0.4958,-0.496,-0.4963,-0.496,-0.4922,-0.4921,-0.492,-0.492,0,-0.5314,-0.531,-0.5279,-0.5246,-0.522,-0.5192,-0.5166,-0.5149,-0.5136,-0.511,-0.5072,-0.5048,-0.5001,-0.4963,-0.4927,-0.491,-0.4913,-0.4911,-0.4902,-0.4904,-0.4911,-0.4908,-0.5003,-0.4914,-0.4914,-0.4915,-0.4915,-0.4915,-0.526,-0.5233,-0.5207,-0.5172,-0.5152,-0.5128,-0.51,-0.5086,-0.5054,-0.5016,-0.5012,-0.4971,-0.4944,-0.4896,-0.4877,-0.4844,-0.4854,-0.484,-0.4837,-0.4834,-0.4832,-0.4916,-0.4838,-0.4838,-0.4838,-0.4838,-0.4838,0,-0.5184,-0.5169,-0.5137,-0.5101,-0.5074,-0.508,-0.5052,-0.5029,-0.4993,-0.4967,-0.4938,-0.4894,-0.4858,-0.4837,-0.4801,-0.4779,-0.478,-0.477,-0.4772,-0.4768,-0.4826,-0.4837,-0.477,-0.477,-0.477,-0.477,-0.477,-0.477,-0.5142,-0.5095,-0.5089,-0.5033,-0.5017,-0.4978,-0.4961,-0.4939,-0.4919,-0.4871,-0.4841,-0.4829,-0.4805,-0.4768,-0.4735,-0.473,-0.4717,-0.4707,-0.4703,-0.4757,-0.4764,-0.477,-0.4782,-0.4704,-0.4704,-0.4648,-0.4647,-0.4647]}]]